カタログに戻る

GAOFEN-5 02

運用中科学SSO
NORAD 49122·PAYLOAD·🇨🇳 China

打ち上げ Sep 7, 2021 から Taiyuan Satellite Launch Center

Loading…

次のパス (今後24時間)

TLE

最新Source: Space-Track

元期: Sep 14, 2026, 23:24 UTC

1 49122U 21079A   26257.97549089  .00000114  00000-0  35026-4 0  9996
2 49122  98.2543 331.6004 0002122  76.8967 283.2469 14.57679775267162

AllMySatでGAOFEN-5 02をリアルタイム追跡

Download on the App Store